Location: Asheville, NC
(35.6000°N, 82.5500°W)
Time: 12:50:57
(UTC-05:00)

Vanguard 2 - Pass Details

Date: 08 December 2017
Orbit: 552 x 2940 km, 32.9° (Epoch: 16 January)

Event Time Altitude Azimuth Distance (km) Brightness Sun altitude
Rises 14:32:45 0° 200° (SSW) 4,635 12.8 23.9°
Maximum altitude 14:40:42 10° 156° (SSE) 2,830 10.9 23.0°
Drops below altitude 10° 14:40:43 10° 156° (SSE) 2,830 10.9 23.0°
Sets 14:46:36 0° 106° (ESE) 3,199 10.5 22.4°
